• în Republica Moldova
  • Lista ţărilor
  • Pe 7 zile
  • Temperatura apei
  • Hartă satelitară
  • Meteo pe hartă
  • Widget-uri
  • user-avatar
    Intrare

    Meteo pe oră la Lenkoran

    Astăzi, 28 Iunie, Miercuri

    Timp Temperatura Precipitaţii Vânt Presiune Umiditate
    00:00 +16°C° 0 mm 1 m/s 633 mmHg 89%
    01:00 +16°C° 0 mm 1 m/s 633 mmHg 89%
    02:00 +16°C° 0 mm 1 m/s 633 mmHg 89%
    03:00 +15°C° 0 mm 1 m/s 633 mmHg 90%
    04:00 +18°C° 0 mm 1 m/s 633 mmHg 86%
    05:00 +19°C° 0 mm 1 m/s 634 mmHg 82%
    06:00 +21°C° 0 mm 1 m/s 634 mmHg 78%
    07:00 +22°C° 0 mm 1 m/s 634 mmHg 71%
    08:00 +24°C° 0 mm 2 m/s 635 mmHg 63%
    09:00 +26°C° 0 mm 2 m/s 635 mmHg 56%
    10:00 +27°C° 0 mm 2 m/s 635 mmHg 54%
    11:00 +28°C° 0 mm 3 m/s 635 mmHg 51%
    12:00 +29°C° 0 mm 3 m/s 635 mmHg 49%
    13:00 +29°C° 0 mm 3 m/s 634 mmHg 49%
    14:00 +29°C° 0 mm 3 m/s 634 mmHg 50%
    15:00 +29°C° 0 mm 3 m/s 634 mmHg 50%
    16:00 +28°C° 0 mm 3 m/s 633 mmHg 55%
    17:00 +26°C° 0 mm 3 m/s 633 mmHg 60%
    18:00 +25°C° 0 mm 2 m/s 632 mmHg 65%
    19:00 +23°C° 0 mm 2 m/s 632 mmHg 71%
    20:00 +21°C° 0 mm 1 m/s 632 mmHg 78%
    21:00 +20°C° 0 mm 1 m/s 631 mmHg 84%
    22:00 +19°C° 0 mm 1 m/s 631 mmHg 84%
    23:00 +18°C° 0 mm 1 m/s 631 mmHg 84%

    Mâine, 29 Iunie, Joi

    Timp Temperatura Precipitaţii Vânt Presiune Umiditate
    00:00 +18°C° 0 mm 1 m/s 631 mmHg 84%
    01:00 +16°C° 0 mm 1 m/s 631 mmHg 83%
    02:00 +16°C° 0 mm 1 m/s 631 mmHg 83%
    03:00 +15°C° 0 mm 2 m/s 631 mmHg 82%
    04:00 +16°C° 0 mm 2 m/s 631 mmHg 77%
    05:00 +18°C° 0 mm 2 m/s 632 mmHg 72%
    06:00 +19°C° 0 mm 2 m/s 632 mmHg 67%
    07:00 +21°C° 0 mm 2 m/s 633 mmHg 56%
    08:00 +24°C° 0 mm 3 m/s 633 mmHg 46%
    09:00 +25°C° 0 mm 3 m/s 634 mmHg 36%
    10:00 +26°C° 0 mm 3 m/s 634 mmHg 32%
    11:00 +27°C° 0 mm 3 m/s 634 mmHg 29%
    12:00 +28°C° 0 mm 4 m/s 634 mmHg 26%
    13:00 +28°C° 0 mm 4 m/s 634 mmHg 25%
    14:00 +28°C° 0 mm 4 m/s 633 mmHg 25%
    15:00 +28°C° 0 mm 4 m/s 633 mmHg 25%
    16:00 +27°C° 0 mm 3 m/s 632 mmHg 29%
    17:00 +26°C° 0 mm 3 m/s 632 mmHg 32%
    18:00 +24°C° 0 mm 2 m/s 632 mmHg 36%
    19:00 +21°C° 0 mm 2 m/s 631 mmHg 41%
    20:00 +19°C° 0 mm 2 m/s 631 mmHg 46%
    21:00 +18°C° 0 mm 1 m/s 631 mmHg 51%
    22:00 +16°C° 0 mm 1 m/s 631 mmHg 48%
    23:00 +16°C° 0 mm 2 m/s 631 mmHg 45%

    Poimâine, 30 Iunie, Vineri

    Timp Temperatura Precipitaţii Vânt Presiune Umiditate
    00:00 +15°C° 0 mm 2 m/s 631 mmHg 42%
    01:00 +15°C° 0 mm 2 m/s 631 mmHg 40%
    02:00 +14°C° 0 mm 2 m/s 631 mmHg 38%
    03:00 +14°C° 0 mm 2 m/s 630 mmHg 37%
    04:00 +15°C° 0 mm 2 m/s 631 mmHg 36%
    05:00 +17°C° 0 mm 2 m/s 632 mmHg 35%
    06:00 +18°C° 0 mm 2 m/s 632 mmHg 34%
    07:00 +20°C° 0 mm 2 m/s 633 mmHg 30%
    08:00 +22°C° 0 mm 3 m/s 634 mmHg 26%
    09:00 +25°C° 0 mm 4 m/s 634 mmHg 21%
    10:00 +26°C° 0 mm 4 m/s 634 mmHg 21%
    11:00 +26°C° 0 mm 4 m/s 634 mmHg 21%
    12:00 +27°C° 0 mm 5 m/s 634 mmHg 21%
    13:00 +27°C° 0 mm 5 m/s 634 mmHg 23%
    14:00 +27°C° 0 mm 5 m/s 634 mmHg 25%
    15:00 +27°C° 0 mm 5 m/s 633 mmHg 27%
    16:00 +25°C° 0 mm 4 m/s 633 mmHg 34%
    17:00 +23°C° 0 mm 4 m/s 633 mmHg 40%
    18:00 +21°C° 0 mm 3 m/s 633 mmHg 47%
    19:00 +19°C° 0 mm 3 m/s 633 mmHg 56%
    20:00 +17°C° 0 mm 3 m/s 633 mmHg 64%
    21:00 +15°C° 0 mm 2 m/s 633 mmHg 73%
    22:00 +14°C° 0 mm 2 m/s 633 mmHg 70%
    23:00 +13°C° 0 mm 3 m/s 632 mmHg 67%

    1 Iulie, Sâmbătă

    Timp Temperatura Precipitaţii Vânt Presiune Umiditate
    00:00 +13°C° 0 mm 3 m/s 632 mmHg 63%
    01:00 +12°C° 0 mm 3 m/s 632 mmHg 61%
    02:00 +13°C° 0 mm 2 m/s 632 mmHg 59%
    03:00 +13°C° 0 mm 2 m/s 632 mmHg 57%
    04:00 +14°C° 0 mm 2 m/s 633 mmHg 53%
    05:00 +16°C° 0 mm 3 m/s 633 mmHg 48%
    06:00 +17°C° 0 mm 3 m/s 634 mmHg 44%
    07:00 +19°C° 0 mm 3 m/s 635 mmHg 39%
    08:00 +21°C° 0 mm 4 m/s 635 mmHg 35%
    09:00 +23°C° 0 mm 4 m/s 636 mmHg 31%
    10:00 +25°C° 0 mm 5 m/s 636 mmHg 29%
    11:00 +26°C° 0 mm 5 m/s 636 mmHg 28%
    12:00 +27°C° 0 mm 5 m/s 636 mmHg 26%
    13:00 +27°C° 0 mm 5 m/s 636 mmHg 28%
    14:00 +27°C° 0 mm 5 m/s 636 mmHg 30%
    15:00 +27°C° 0 mm 6 m/s 635 mmHg 32%
    16:00 +26°C° 0 mm 5 m/s 635 mmHg 38%
    17:00 +23°C° 0 mm 4 m/s 635 mmHg 43%
    18:00 +22°C° 0 mm 3 m/s 635 mmHg 49%
    19:00 +20°C° 0 mm 3 m/s 635 mmHg 57%
    20:00 +18°C° 0 mm 3 m/s 634 mmHg 65%
    21:00 +15°C° 0 mm 2 m/s 634 mmHg 74%
    22:00 +15°C° 0 mm 2 m/s 634 mmHg 69%
    23:00 +16°C° 0 mm 2 m/s 634 mmHg 64%

    2 Iulie, Duminică

    Timp Temperatura Precipitaţii Vânt Presiune Umiditate
    00:00 +16°C° 0 mm 2 m/s 634 mmHg 59%
    01:00 +16°C° 0 mm 2 m/s 634 mmHg 58%
    02:00 +15°C° 0 mm 2 m/s 634 mmHg 58%
    03:00 +15°C° 0 mm 2 m/s 634 mmHg 57%
    04:00 +17°C° 0 mm 2 m/s 634 mmHg 55%
    05:00 +18°C° 0 mm 2 m/s 635 mmHg 53%
    06:00 +19°C° 0 mm 2 m/s 635 mmHg 51%
    07:00 +21°C° 0 mm 2 m/s 636 mmHg 45%
    08:00 +24°C° 0 mm 2 m/s 636 mmHg 39%
    09:00 +26°C° 0 mm 3 m/s 637 mmHg 32%
    10:00 +27°C° 0 mm 3 m/s 637 mmHg 30%
    11:00 +28°C° 0 mm 4 m/s 636 mmHg 28%
    12:00 +30°C° 0 mm 4 m/s 636 mmHg 26%
    13:00 +30°C° 0 mm 4 m/s 636 mmHg 25%
    14:00 +30°C° 0 mm 5 m/s 636 mmHg 25%
    15:00 +30°C° 0 mm 5 m/s 635 mmHg 24%
    16:00 +29°C° 0 mm 4 m/s 635 mmHg 27%
    17:00 +27°C° 0 mm 4 m/s 634 mmHg 29%
    18:00 +26°C° 0 mm 3 m/s 634 mmHg 32%
    19:00 +22°C° 0 mm 3 m/s 634 mmHg 38%
    20:00 +20°C° 0 mm 2 m/s 633 mmHg 44%
    21:00 +17°C° 0 mm 2 m/s 633 mmHg 50%
    22:00 +17°C° 0 mm 2 m/s 633 mmHg 49%
    23:00 +17°C° 0 mm 2 m/s 633 mmHg 48%

    3 Iulie, Luni

    Timp Temperatura Precipitaţii Vânt Presiune Umiditate
    00:00 +18°C° 0 mm 1 m/s 632 mmHg 47%
    01:00 +16°C° 0 mm 1 m/s 632 mmHg 49%
    02:00 +16°C° 0 mm 1 m/s 632 mmHg 50%
    03:00 +16°C° 0 mm 1 m/s 632 mmHg 52%
    04:00 +18°C° 0,1 mm 1 m/s 632 mmHg 50%
    05:00 +20°C° 0,1 mm 1 m/s 633 mmHg 48%
    06:00 +20°C° 0,1 mm 0 m/s 633 mmHg 46%
    07:00 +24°C° 0,1 mm 1 m/s 634 mmHg 39%
    08:00 +26°C° 0,1 mm 1 m/s 634 mmHg 32%
    09:00 +28°C° 0,1 mm 2 m/s 635 mmHg 26%
    10:00 +29°C° 0 mm 2 m/s 634 mmHg 24%
    11:00 +30°C° 0 mm 2 m/s 634 mmHg 23%
    12:00 +31°C° 0 mm 3 m/s 634 mmHg 22%
    13:00 +31°C° 0 mm 3 m/s 634 mmHg 22%
    14:00 +31°C° 0 mm 3 m/s 633 mmHg 23%
    15:00 +31°C° 0 mm 3 m/s 633 mmHg 24%
    16:00 +30°C° 0 mm 3 m/s 633 mmHg 28%
    17:00 +29°C° 0 mm 3 m/s 632 mmHg 32%
    18:00 +28°C° 0 mm 2 m/s 632 mmHg 36%
    19:00 +25°C° 0,1 mm 2 m/s 632 mmHg 41%
    20:00 +23°C° 0,1 mm 2 m/s 631 mmHg 47%
    21:00 +20°C° 0,1 mm 2 m/s 631 mmHg 52%
    22:00 +20°C° 0,2 mm 2 m/s 631 mmHg 51%
    23:00 +19°C° 0,2 mm 2 m/s 631 mmHg 50%
    Arată mai mult